Location: *
(50.5492°N, 7.7469°E)
Time: 23:22:57
(UTC+00:00)

NOSS 3-2 (A) - Pass Details

Date: 21 October 2019
Orbit: 815 x 1393 km, 63.4° (Epoch: 19 November)

Event Time Altitude Azimuth Distance (km) Brightness Sun altitude
Rises 17:33:15 0° 190° (S) 3,389 6.5 -11.4°
Reaches altitude 10° 17:35:47 10° 181° (S) 2,502 5.7 -11.8°
Maximum altitude 17:40:59 36° 117° (ESE) 1,441 4.0 -12.6°
Enters shadow 17:46:24 12° 55° (NE) 2,677 5.3 -13.5°
